Printer-friendly version

IAU Minor Planet Center

Minor Planet Center

MPEC 2004-M03 : 2004 LZ11

The following Minor Planet Electronic Circular may be linked-to from your own Web pages, but must not otherwise be redistributed electronically.


Read MPEC 2004-M02 Read MPEC 2004-M04


M.P.E.C. 2004-M03                                Issued 2004 June 16, 15:34 UT

     The Minor Planet Electronic Circulars contain information on unusual
         minor planets and routine data on comets.  They are published
   on behalf of Commission 20 of the International Astronomical Union by the
          Minor Planet Center, Smithsonian Astrophysical Observatory,
                          Cambridge, MA 02138, U.S.A.

         Supported in part by the Steven and Michele Kirsch Foundation
             Prepared using the Tamkin Foundation Computer Network

                              MPC@CFA.HARVARD.EDU
          URL http://cfa-www.harvard.edu/iau/mpc.html  ISSN 1523-6714

                                   2004 LZ11

Observations:
     K04L11Z* C2004 06 14.32463 19 12 58.23 -27 55 03.9          19.0   EM003704
     K04L11Z  C2004 06 14.33519 19 12 58.65 -27 55 12.8          19.5   EM003704
     K04L11Z  C2004 06 14.35686 19 12 59.27 -27 55 30.2          19.5   EM003704
     K04L11Z  C2004 06 14.36684 19 12 59.54 -27 55 38.6          18.9   EM003704
     K04L11Z  C2004 06 15.32352 19 13 36.25 -28 09 04.3          19.1   EM003704
     K04L11Z  C2004 06 15.32448 19 13 36.28 -28 09 03.6          18.9   EM003704
     K04L11Z  C2004 06 15.33442 19 13 36.56 -28 09 14.4          19.0   EM003704
     K04L11Z  C2004 06 15.33548 19 13 36.57 -28 09 13.9          19.3   EM003704
     K04L11Z  C2004 06 15.34520 19 13 36.89 -28 09 21.2          19.5   EM003704
     K04L11Z  C2004 06 15.36376 19 13 37.48 -28 09 38.2          19.4   EM003704
     K04L11Z  C2004 06 15.36472 19 13 37.47 -28 09 37.7          19.4   EM003704
     K04L11Z  C2004 06 16.32607 19 14 12.92 -28 23 26.5          19.0   EM003704
     K04L11Z  C2004 06 16.33820 19 14 13.25 -28 23 36.9          19.3   EM003704
     K04L11Z  C2004 06 16.34788 19 14 13.52 -28 23 45.8          19.6   EM003704
     K04L11Z  C2004 06 16.35759 19 14 13.80 -28 23 53.9          19.2   EM003704

Observer details:
704 Lincoln Laboratory ETS, New Mexico.  Observers M. Blythe, F. Shelly,
    M. Bezpalko, R. Huber, L. Manguso, D. Torres, R. Kracke, M. McCleary,
    H. Stange, A. Milner.  Measurers J. Stuart, R. Sayer, J. Evans, J. Kommers.
    1.0-m f/2.15 reflector + CCD.

Orbital elements:
2004 LZ11
Epoch 2004 June 4.0 TT = JDT 2453160.5                  MPC
M 330.12263              (2000.0)            P               Q
n   0.36070347     Peri.  254.53387     +0.82240138     +0.56300600
a   1.9545007      Node    71.13678     -0.48323228     +0.76712292
e   0.3666803      Incl.    4.95489     -0.30023747     +0.30748442
P   2.73           H   18.8           G   0.15
From 15 observations 2004 June 14-16.

Ephemeris:
2004 LZ11                a,e,i = 1.95, 0.37, 5                   q = 1.2378
Date    TT    R. A. (2000) Decl.     Delta      r     Elong.  Phase     V
2004 06 14    19 12.75   -27 50.3    0.412    1.403   156.5    16.8    18.5
2004 06 24    19 18.17   -30 23.5    0.359    1.365   163.7    12.1    18.0
2004 07 04    19 21.86   -33 22.1    0.319    1.330   167.8     9.3    17.6
2004 07 14    19 24.94   -36 28.9    0.291    1.300   165.0    11.6    17.4
2004 07 24    19 29.32   -39 17.5    0.275    1.275   158.3    17.2    17.4
2004 08 03    19 37.46   -41 20.6    0.268    1.256   151.1    23.0    17.5
2004 08 13    19 50.88   -42 18.3    0.270    1.244   144.8    28.0    17.7
2004 08 23    20 09.88   -41 59.1    0.279    1.238   139.9    31.7    17.8
2004 09 02    20 33.32   -40 22.7    0.296    1.240   136.2    34.3    18.0
2004 09 12    20 58.97   -37 38.1    0.320    1.248   133.3    35.9    18.3
2004 09 22    21 25.11   -34 00.7    0.353    1.263   131.0    36.9    18.5
2004 10 02    21 50.58   -29 50.2    0.395    1.285   128.7    37.4    18.8
2004 10 12    22 14.77   -25 25.3    0.446    1.312   126.2    37.8    19.2
2004 10 22    22 37.75   -20 59.4    0.509    1.344   123.5    38.1    19.5
2004 11 01    22 59.66   -16 42.0    0.582    1.381   120.3    38.3    19.9
2004 11 11    23 20.71   -12 38.0    0.665    1.421   116.9    38.4    20.2
2004 11 21    23 41.18   -08 48.9    0.760    1.463   113.1    38.4    20.6
2004 12 01    00 01.25   -05 15.1    0.864    1.508   109.0    38.2    20.9
2004 12 11    00 21.04   -01 55.9    0.978    1.555   104.8    37.8    21.2
2004 12 21    00 40.72   +01 09.9    1.099    1.602   100.4    37.1    21.5
2004 12 31    01 00.36   +04 03.0    1.229    1.650    95.9    36.3    21.8

Timothy B. Spahr             (C) Copyright 2004 MPC           M.P.E.C. 2004-M03

Read MPEC 2004-M02 Read MPEC 2004-M04


Our Web policy. Index to the CBAT/MPC/ICQ pages.


Valid HTML 4.01!